Devils Lake, ND

10:14 AM CDT on April 27, 2017 (GMT -0500)
Devils Lake Municipal

Weather History for KDVL - October, 2013

Change the Weather History Date:

Friday, October 11, 2013

  Actual Average Record
Temperature  
Mean Temperature 56 °F -  
Max Temperature 62 °F 55 °F 77 °F (2015)
Min Temperature 50 °F 35 °F 20 °F (1959)
Degree Days  
Heating Degree Days 9    
Growing Degree Days 6 (Base 50)    
Moisture  
Dew Point 51 °F    
Average Humidity 82    
Maximum Humidity 88    
Minimum Humidity 68    
Precipitation  
Precipitation 0.81 in - - ()
Sea Level Pressure  
Sea Level Pressure 29.46 in    
Wind  
Wind Speed 8 mph (ESE)    
Max Wind Speed 16 mph    
Max Gust Speed 24 mph    
Visibility 10 miles    
Events Thunderstorm    
Averages and records for this station are not official NWS values.
T = Trace of Precipitation, MM = Missing Value Source: NWS Daily Summary

Daily Weather History Graph

Daily Weather History Graph

Search for Another Location

Airport or City:

Trip Planner

Search our weather history database for the weather conditions in past years. The results will help you decide how hot, cold, wet, or windy it might be!

Date:

Astronomy

Oct. 11, 2013 Rise Set
Actual Time 7:49 AM CDT 6:54 PM CDT
Civil Twilight 7:18 AM CDT 7:25 PM CDT
Nautical Twilight 6:42 AM CDT 8:01 PM CDT
Astronomical Twilight 6:06 AM CDT 8:37 PM CDT
Moon 2:47 PM CDT (10/11) No Moon Set
Length of Visible Light 12h 06m
Length of Day
11h 04m
Waxing Crescent, 47% of the Moon is Illuminated
Oct 11
Waxing Crescent
Oct 11
First Quarter
Oct 18
Full
Oct 26
Last Quarter
Nov 3
New

Hourly Weather History & Observations

Time (CDT) Temp. Dew Point Humidity Pressure Visibility Wind Dir Wind Speed Gust Speed Precip Events Conditions
12:15 AM 55.4 °F 51.8 °F 88% 29.67 in 10.0 mi SSE 5.8 mph - N/A   Clear
12:35 AM 55.4 °F 51.8 °F 88% 29.66 in 10.0 mi Calm Calm - N/A   Clear
12:55 AM 55.4 °F 51.8 °F 88% 29.66 in 10.0 mi ESE 6.9 mph - N/A   Clear
1:15 AM 57.2 °F 51.8 °F 82% 29.66 in 10.0 mi SE 6.9 mph - N/A   Partly Cloudy
1:35 AM 57.2 °F 51.8 °F 82% 29.66 in 10.0 mi Calm Calm - N/A   Scattered Clouds
1:55 AM 57.2 °F 51.8 °F 82% 29.66 in 10.0 mi SE 5.8 mph - N/A   Overcast
2:15 AM 57.2 °F 51.8 °F 82% 29.65 in 10.0 mi ESE 5.8 mph - N/A   Overcast
2:35 AM 57.2 °F 51.8 °F 82% 29.60 in 10.0 mi NE 6.9 mph - N/A   Overcast
2:55 AM 57.2 °F 51.8 °F 82% 29.60 in 10.0 mi NE 5.8 mph - N/A   Overcast
3:15 AM 55.4 °F 51.8 °F 88% 29.61 in 10.0 mi ESE 4.6 mph - N/A   Overcast
3:35 AM 55.4 °F 51.8 °F 88% 29.63 in 10.0 mi SSE 6.9 mph - N/A   Overcast
3:55 AM 55.4 °F 51.8 °F 88% 29.62 in 10.0 mi ESE 6.9 mph - N/A   Mostly Cloudy
4:15 AM 57.2 °F 51.8 °F 82% 29.62 in 10.0 mi ESE 8.1 mph - N/A   Scattered Clouds
4:35 AM 57.2 °F 51.8 °F 82% 29.62 in 10.0 mi ESE 9.2 mph - N/A   Scattered Clouds
4:55 AM 59.0 °F 53.6 °F 82% 29.59 in 10.0 mi ESE 9.2 mph - N/A   Partly Cloudy
5:15 AM 57.2 °F 51.8 °F 82% 29.60 in 10.0 mi ESE 11.5 mph - N/A   Scattered Clouds
5:35 AM 57.2 °F 51.8 °F 82% 29.62 in 10.0 mi SE 10.4 mph - N/A   Mostly Cloudy
5:55 AM 59.0 °F 51.8 °F 77% 29.60 in 10.0 mi ESE 9.2 mph - N/A   Overcast
6:15 AM 57.2 °F 51.8 °F 82% 29.60 in 10.0 mi ESE 10.4 mph - N/A   Overcast
6:35 AM 57.2 °F 51.8 °F 82% 29.58 in 10.0 mi ESE 9.2 mph - N/A   Mostly Cloudy
6:55 AM 57.2 °F 51.8 °F 82% 29.57 in 10.0 mi East 9.2 mph - N/A   Scattered Clouds
7:15 AM 57.2 °F 51.8 °F 82% 29.57 in 10.0 mi East 9.2 mph - N/A   Partly Cloudy
7:35 AM 57.2 °F 51.8 °F 82% 29.55 in 10.0 mi East 9.2 mph - N/A   Clear
7:55 AM 57.2 °F 50.0 °F 77% 29.54 in 10.0 mi East 10.4 mph - N/A   Clear
8:15 AM 57.2 °F 51.8 °F 82% 29.53 in 10.0 mi ESE 13.8 mph - N/A   Partly Cloudy
8:35 AM 57.2 °F 51.8 °F 82% 29.51 in 10.0 mi East 12.7 mph - N/A   Partly Cloudy
8:55 AM 57.2 °F 50.0 °F 77% 29.51 in 10.0 mi East 12.7 mph - N/A   Clear
9:15 AM 57.2 °F 50.0 °F 77% 29.54 in 10.0 mi SSE 9.2 mph - N/A   Clear
9:35 AM 57.2 °F 51.8 °F 82% 29.53 in 10.0 mi SE 9.2 mph - N/A   Mostly Cloudy
9:55 AM 57.2 °F 51.8 °F 82% 29.53 in 10.0 mi SE 10.4 mph - N/A   Mostly Cloudy
10:15 AM 59.0 °F 51.8 °F 77% 29.52 in 10.0 mi SE 15.0 mph 18.4 mph N/A   Mostly Cloudy
10:35 AM 59.0 °F 51.8 °F 77% 29.50 in 10.0 mi ESE 11.5 mph 20.7 mph N/A   Overcast
10:55 AM 59.0 °F 51.8 °F 77% 29.50 in 10.0 mi SE 13.8 mph - N/A   Mostly Cloudy
11:15 AM 60.8 °F 51.8 °F 72% 29.47 in 10.0 mi SE 13.8 mph - N/A   Mostly Cloudy
11:35 AM 62.6 °F 51.8 °F 68% 29.49 in 10.0 mi SE 16.1 mph - N/A   Partly Cloudy
11:55 AM 60.8 °F 53.6 °F 77% 29.47 in 10.0 mi SE 15.0 mph 20.7 mph N/A   Mostly Cloudy
12:15 PM 60.8 °F 53.6 °F 77% 29.48 in 10.0 mi SE 12.7 mph - N/A   Overcast
12:35 PM 60.8 °F 53.6 °F 77% 29.49 in 10.0 mi South 15.0 mph - N/A Thunderstorm Overcast
12:55 PM 59.0 °F 53.6 °F 82% 29.47 in 10.0 mi SSE 12.7 mph - 0.01 in Thunderstorm Overcast
1:15 PM 59.0 °F 53.6 °F 82% 29.44 in 9.0 mi SE 9.2 mph - 0.06 in Thunderstorm Thunderstorm
1:35 PM 57.2 °F 51.8 °F 82% 29.45 in 10.0 mi SE 13.8 mph - 0.06 in   Overcast
1:55 PM 57.2 °F 53.6 °F 88% 29.44 in 9.0 mi SSE 10.4 mph - 0.11 in Thunderstorm Thunderstorm
2:15 PM 57.2 °F 51.8 °F 82% 29.41 in 8.0 mi East 11.5 mph - 0.11 in Thunderstorm Thunderstorm
2:35 PM 60.8 °F 55.4 °F 82% 29.39 in 10.0 mi East 12.7 mph - 0.12 in Thunderstorm Thunderstorm
2:55 PM 60.8 °F 53.6 °F 77% 29.40 in 10.0 mi ESE 15.0 mph 24.2 mph 0.12 in   Overcast
3:15 PM 59.0 °F 53.6 °F 82% 29.39 in 10.0 mi ESE 12.7 mph - N/A   Overcast
3:35 PM 57.2 °F 53.6 °F 88% 29.38 in 6.0 mi SE 10.4 mph - 0.01 in   Overcast
3:55 PM 57.2 °F 53.6 °F 88% 29.37 in 7.0 mi SE 12.7 mph - 0.01 in   Overcast
4:15 PM 59.0 °F 53.6 °F 82% 29.36 in 10.0 mi ESE 15.0 mph - N/A   Mostly Cloudy
4:35 PM 59.0 °F 53.6 °F 82% 29.36 in 10.0 mi SE 13.8 mph - N/A   Mostly Cloudy
4:55 PM 59.0 °F 53.6 °F 82% 29.36 in 10.0 mi ESE 13.8 mph 18.4 mph N/A   Overcast
5:15 PM 59.0 °F 53.6 °F 82% 29.36 in 10.0 mi ESE 13.8 mph - N/A   Overcast
5:35 PM 59.0 °F 53.6 °F 82% 29.37 in 9.0 mi SSE 13.8 mph 20.7 mph 0.01 in   Mostly Cloudy
5:55 PM 53.6 °F 46.4 °F 77% 29.38 in 8.0 mi South 12.7 mph - 0.10 in   Mostly Cloudy
6:15 PM 51.8 °F 46.4 °F 82% 29.35 in 10.0 mi SSW 8.1 mph - 0.08 in Thunderstorm Overcast
6:35 PM 51.8 °F 46.4 °F 82% 29.34 in 6.0 mi South 3.5 mph - 0.15 in   Overcast
6:55 PM 51.8 °F 46.4 °F 82% 29.30 in 7.0 mi NNE 5.8 mph - 0.26 in   Overcast
7:15 PM 51.8 °F 46.4 °F 82% 29.28 in 10.0 mi NE 4.6 mph - 0.05 in   Mostly Cloudy
7:35 PM 50.0 °F 46.4 °F 87% 29.28 in 10.0 mi NE 9.2 mph - 0.05 in   Clear
7:55 PM 51.8 °F 46.4 °F 82% 29.28 in 10.0 mi ENE 8.1 mph - 0.05 in   Mostly Cloudy
8:15 PM 51.8 °F 46.4 °F 82% 29.26 in 10.0 mi NNE 6.9 mph - 0.01 in   Overcast
8:35 PM 51.8 °F 48.2 °F 88% 29.26 in 10.0 mi North 4.6 mph - 0.02 in   Overcast
8:55 PM 51.8 °F 46.4 °F 82% 29.26 in 10.0 mi Calm Calm - 0.02 in   Overcast
9:15 PM 51.8 °F 48.2 °F 88% 29.25 in 10.0 mi North 4.6 mph - 0.02 in   Overcast
9:35 PM 51.8 °F 48.2 °F 88% 29.25 in 9.0 mi WNW 10.4 mph - 0.06 in   Overcast
9:55 PM 51.8 °F 48.2 °F 88% 29.26 in 10.0 mi NW 9.2 mph - 0.11 in   Overcast
10:15 PM 51.8 °F 48.2 °F 88% 29.26 in 10.0 mi NW 6.9 mph - 0.01 in   Overcast
10:35 PM 51.8 °F 48.2 °F 88% 29.27 in 10.0 mi WNW 5.8 mph - 0.01 in   Overcast
10:55 PM 51.8 °F 48.2 °F 88% 29.28 in 10.0 mi WSW 6.9 mph - 0.02 in   Overcast
11:15 PM 51.8 °F 48.2 °F 88% 29.28 in 10.0 mi WSW 6.9 mph - N/A   Overcast
11:35 PM 51.8 °F 48.2 °F 88% 29.29 in 10.0 mi West 8.1 mph - N/A   Overcast
11:55 PM 51.8 °F 48.2 °F 88% 29.29 in 10.0 mi West 11.5 mph - N/A   Overcast